map of NQN home
Great Circle Mapper logo
NQN - Airport
Location
City:  Neuquén, Neuquén, Argentina
Name:Presidente Perón
ICAO / IATA:SAZN / NQN

Details
Type:Airport (Aerodrome, Airfield)
Use:Public/Civil
Latitude:38°56'56"S (-38.948999)
Longitude:68°09'21"W (-68.155710)
Datum:WGS 1984
Elevation:895 ft (273 m)
Variation:3.01°E (WMM2015 magnetic declination)
-0.14° annual change
Runways:1
Longest:8432 × 147 ft (2570 × 45 m), paved

Time
Time Zone:UTC-3
Local Time:

Weather
METAR:SAZN 311200Z 00000KT CAVOK 10/03 Q1019
TAF:SAZN 311100Z 3112/0112 23015KT CAVOK TX23/3118Z TN10/0109Z
BECMG 3118/3120 27010KT
BECMG 0102/0104 34010KT

Related Locations
Nearby:
Farthest:TYN: 12339 mi / 19857 km
Taiyuan [Taiyuan Wusu Intl], Shanxi, CN

Find:

   beyond  
but within

Other Information
Maps:
NOTAMs:
Links:
Sources:

  
flag of Argentina
flag of Neuquén
  

Sectional Chart

Flight Planning
at skyvector.com

Satellite Image

Google Maps Satellite View

 

Copyright © 2004-2015 Karl L. Swartz. All rights reserved.
The Great Circle Mapper name and logo are trademarks of the Great Circle Mapper.
All other trademarks mentioned herein belong to their respective owners.
Please see credits for attibutions and further copyright information.

  Follow gcmap on Facebook Follow gcmap on Twitter Follow gcmap on Google+

hCard Microformat

Geo Microformat